Location: Hiram
(41.3130°N, 81.1440°W)
Time: 09:09:54
(UTC-05:00)

Amateur Radio Satellites - All Passes

Search period start: 28 January 2015 08:39
Search period end: 29 January 2015 08:39
Location: Hiram, 41.3130°N, 81.1440°W

Satellite Date Start Highest point End Downlink Frequencies (MHz)
Time Altitude Azimuth
HO-68 28 Jan 08:40:09 08:46:40 38° 97° (E) 08:53:15 435.675
COMPASS 1 28 Jan 08:40:58 08:43:54 19° 92° (E) 08:46:57 437.405
VERMONT LUNAR 28 Jan 08:41:39 08:43:57 17° 150° (SSE) 08:46:20 437.305
CANX-2 28 Jan 08:50:50 08:54:47 38° 97° (E) 08:58:45 2200.000
UNISAT 6 28 Jan 08:57:35 09:00:08 15° 64° (ENE) 09:02:53 437.425
AAUSAT CUBESAT 2 28 Jan 09:07:38 09:11:23 33° 96° (E) 09:15:09 437.432
POLYITAN 1 28 Jan 09:09:43 09:10:22 10° 62° (ENE) 09:11:16 437.675
DELFI C3 28 Jan 09:11:09 09:13:05 13° 90° (E) 09:15:12 145.870
Oscar 11 28 Jan 09:12:55 09:15:56 19° 92° (E) 09:19:03 145.826/435.025
CUTE 1.7 + AOD 2 28 Jan 09:15:00 09:19:14 67° 101° (E) 09:23:25 437.475
RS-15 28 Jan 09:23:33 09:31:40 22° 348° (NNW) 09:39:49 29.354- 29.394
POPSAT HIP 1 28 Jan 09:28:17 09:30:54 16° 66° (ENE) 09:33:41 437.405
DUCHIFAT 1 28 Jan 09:31:30 09:34:16 18° 66° (ENE) 09:37:11 145.980
ANTELSAT 28 Jan 09:31:39 09:35:48 32° 70° (ENE) 09:40:00 437.575/2403.000
PHONESAT 2.4 28 Jan 09:32:45 09:35:36 22° 153° (SSE) 09:38:31 2401.200-2431.200
SO-50 28 Jan 09:35:21 09:36:26 11° 108° (ESE) 09:37:47 436.795
TIGRISAT 28 Jan 09:39:55 09:44:14 37° 71° (ENE) 09:48:36 435.000
CUBEBUG 2 28 Jan 09:46:37 09:50:43 32° 95° (E) 09:54:43 437.445
UKube-1 28 Jan 09:47:15 09:50:48 25° 95° (E) 09:54:25 .
SEEDS 28 Jan 09:47:25 09:51:34 60° 286° (WNW) 09:55:42 437.485
BRITE-PL 28 Jan 09:47:59 09:53:26 46° 289° (WNW) 09:58:40 437.365/2234.400
GOMX 1 28 Jan 09:49:26 09:54:50 60° 287° (WNW) 09:59:58 467.674
YUBILEINY 28 Jan 09:56:04 09:57:18 10° 286° (WNW) 09:57:44 435.215
ZACube-1 28 Jan 09:59:28 10:03:23 30° 95° (E) 10:07:13 437.345
50 SAT 28 Jan 10:00:49 10:01:55 11° 88° (E) 10:03:15 437.505
CINEMA 3 28 Jan 10:02:57 10:07:53 83° 101° (E) 10:12:33 145.822/145.860
NANOSAT C BR1 28 Jan 10:04:27 10:08:24 39° 71° (ENE) 10:12:26 145.865
DX 1 28 Jan 10:06:12 10:10:23 41° 98° (E) 10:14:33 434.975-435.025
DOVE 4 28 Jan 10:07:21 10:12:29 54° 287° (WNW) 10:17:21 437.250
FUNcube-1 28 Jan 10:11:39 10:15:50 40° 97° (E) 10:19:55 145.935
HUMSAT D 28 Jan 10:11:58 10:15:14 22° 93° (E) 10:18:33 437.325/437.525
BEESAT 2 28 Jan 10:15:27 10:17:26 13° 38° (NE) 10:19:32 435.950
COMPASS 1 28 Jan 10:15:58 10:19:47 34° 289° (WNW) 10:23:32 437.405
QB50P2 28 Jan 10:17:49 10:22:01 56° 74° (ENE) 10:26:15 145.880/145.840
VERMONT LUNAR 28 Jan 10:18:15 10:21:40 54° 165° (SSE) 10:25:07 437.305
AISAT 28 Jan 10:25:28 10:29:14 26° 94° (E) 10:33:03 437.250
ESTCUBE 1 28 Jan 10:26:34 10:27:49 11° 88° (E) 10:29:23 437.505/2401.250
QB50P1 28 Jan 10:27:30 10:31:46 72° 75° (ENE) 10:36:04 145.935-145.965
CANX-2 28 Jan 10:27:32 10:30:31 18° 293° (WNW) 10:33:21 2200.000
HO-68 28 Jan 10:27:48 10:34:29 43° 294° (WNW) 10:41:04 435.675
UWE-3 28 Jan 10:28:51 10:33:25 78° 102° (ESE) 10:37:47 435.000/436.395/437.385
BEESAT 3 28 Jan 10:30:07 10:33:03 19° 43° (NE) 10:36:03 437.485
UNISAT 6 28 Jan 10:31:48 10:36:29 63° 259° (W) 10:41:11 437.425
POLYITAN 1 28 Jan 10:41:28 10:45:45 79° 258° (WSW) 10:50:06 437.675
AAUSAT CUBESAT 2 28 Jan 10:43:45 10:46:53 20° 292° (WNW) 10:49:54 437.432
DELFI C3 28 Jan 10:44:46 10:48:40 46° 287° (WNW) 10:52:31 145.870
BUGSAT 1 28 Jan 10:45:27 10:49:32 87° 78° (ENE) 10:53:43 437.445
Oscar 11 28 Jan 10:48:17 10:52:18 37° 289° (WNW) 10:56:15 145.826/435.025
CUTE 1.7 + AOD 2 28 Jan 10:53:12 10:54:40 11° 296° (WNW) 10:55:57 437.475
VELOX 1 28 Jan 10:53:55 10:58:19 51° 100° (E) 11:02:41 145.980
AIST 1 28 Jan 11:01:37 11:04:58 24° 89° (E) 11:08:24
POPSAT HIP 1 28 Jan 11:02:22 11:06:29 46° 261° (W) 11:10:39 437.405
DUCHIFAT 1 28 Jan 11:05:47 11:09:51 42° 262° (W) 11:13:56 145.980
CUBEBUG 1 28 Jan 11:06:05 11:09:56 28° 95° (E) 11:13:49 437.445
ANTELSAT 28 Jan 11:08:36 11:12:37 27° 266° (W) 11:16:34 437.575/2403.000
PHONESAT 2.4 28 Jan 11:10:16 11:13:51 63° 169° (SSE) 11:17:28 2401.200-2431.200
SO-50 28 Jan 11:11:46 11:16:21 81° 303° (WNW) 11:21:06 436.795
TIGRISAT 28 Jan 11:17:21 11:21:08 23° 267° (W) 11:24:47 435.000
UKube-1 28 Jan 11:23:10 11:27:00 30° 291° (WNW) 11:30:45 .
CUBEBUG 2 28 Jan 11:23:32 11:27:19 25° 292° (WNW) 11:30:55 437.445
50 SAT 28 Jan 11:33:30 11:37:30 56° 286° (WNW) 11:41:25 437.505
ZACube-1 28 Jan 11:35:59 11:39:40 25° 292° (WNW) 11:43:11 437.345
TISAT 1 28 Jan 11:38:08 11:40:27 15° 90° (E) 11:42:57 437.305
RS-15 28 Jan 11:40:23 11:49:12 26° 22° (NNE) 11:58:32 29.354- 29.394
NANOSAT C BR1 28 Jan 11:41:29 11:44:29 18° 268° (W) 11:47:23 145.865
AIST 2 28 Jan 11:42:14 11:46:09 33° 49° (NE) 11:50:02 435.215
CINEMA 3 28 Jan 11:42:30 11:44:24 12° 299° (WNW) 11:46:02 145.822/145.860
DX 1 28 Jan 11:43:14 11:46:23 19° 294° (WNW) 11:49:24 434.975-435.025
HUMSAT D 28 Jan 11:47:20 11:51:07 31° 290° (WNW) 11:54:48 437.325/437.525
FUNcube-1 28 Jan 11:48:43 11:51:56 19° 294° (WNW) 11:54:58 145.935
BEESAT 2 28 Jan 11:52:06 11:56:18 87° 239° (WSW) 12:00:26 435.950
VERMONT LUNAR 28 Jan 11:56:12 11:59:43 80° 184° (S) 12:03:15 437.305
QB50P2 28 Jan 11:56:23 11:58:23 13° 271° (W) 12:00:09 145.880/145.840
GONETS M04 28 Jan 11:59:24 12:07:17 38° 71° (ENE) 12:15:16
ESTCUBE 1 28 Jan 12:00:46 12:05:17 69° 285° (WNW) 12:09:47 437.505/2401.250
AISAT 28 Jan 12:01:54 12:05:53 30° 291° (WNW) 12:09:46 437.250
BEESAT 3 28 Jan 12:07:28 12:11:31 51° 242° (WSW) 12:15:30 437.485
UWE-3 28 Jan 12:07:53 12:09:21 11° 298° (WNW) 12:10:34 435.000/436.395/437.385
SPROUT 28 Jan 12:31:33 12:35:52 60° 100° (E) 12:40:10 437.525
VELOX 1 28 Jan 12:31:40 12:34:32 16° 295° (WNW) 12:37:15 145.980
AIST 1 28 Jan 12:38:55 12:42:34 27° 286° (WNW) 12:46:10
CUBEBUG 1 28 Jan 12:42:29 12:46:15 27° 291° (WNW) 12:49:58 437.445
PCSat 28 Jan 12:43:27 12:47:33 22° 44° (NE) 12:51:45 145.827
PHONESAT 2.4 28 Jan 12:48:44 12:52:22 77° 187° (S) 12:56:01 2401.200-2431.200
Oscar 19 28 Jan 12:48:48 12:53:55 62° 73° (ENE) 12:59:04 437.125/150
SO-50 28 Jan 12:55:09 12:57:45 14° 325° (NW) 13:00:15 436.795
ITAMSAT 1 28 Jan 13:03:19 13:07:46 31° 67° (ENE) 13:12:19 435.822/435.867
SWISSCUBE 28 Jan 13:08:20 13:12:08 24° 94° (E) 13:16:01 437.505
TISAT 1 28 Jan 13:12:28 13:16:37 48° 288° (WNW) 13:20:45 437.305
AIST 2 28 Jan 13:21:06 13:24:40 25° 247° (WSW) 13:28:06 435.215
BEESAT 28 Jan 13:24:03 13:28:16 31° 96° (E) 13:32:32 436.000
ITUPSAT 1 28 Jan 13:27:13 13:31:31 33° 96° (E) 13:35:52 437.325
VERMONT LUNAR 28 Jan 13:34:22 13:37:43 42° 199° (SSW) 13:41:04 437.305
RS-15 28 Jan 13:53:06 14:04:22 66° 51° (NE) 14:16:11 29.354- 29.394
Gurwin Techsat 1B 28 Jan 13:53:35 13:58:47 60° 73° (ENE) 14:04:03 435.225
GONETS M04 28 Jan 13:56:08 14:04:21 47° 271° (W) 14:12:27
KKS-1 28 Jan 14:02:16 14:04:46 15° 90° (E) 14:07:27 437.445
SPROUT 28 Jan 14:09:18 14:11:31 13° 296° (WNW) 14:13:34 437.525
DANDE 28 Jan 14:20:23 14:24:39 18° 56° (NE) 14:28:33 436.750
PCSat 28 Jan 14:26:07 14:31:30 64° 244° (WSW) 14:36:50 145.827
PHONESAT 2.4 28 Jan 14:27:23 14:30:46 35° 202° (SSW) 14:34:08 2401.200-2431.200
Oscar 19 28 Jan 14:30:32 14:33:47 16° 271° (W) 14:36:49 437.125/150
AO-7 28 Jan 14:31:32 14:38:59 39° 61° (ENE) 14:46:34 29.400- 29.500
ITAMSAT 1 28 Jan 14:42:35 14:47:14 33° 264° (W) 14:51:52 435.822/435.867
SWISSCUBE 28 Jan 14:45:44 14:50:08 36° 290° (WNW) 14:54:28 437.505
HORYU 2 28 Jan 14:48:23 14:52:51 66° 75° (ENE) 14:57:20 437.375
CUSAT 1 28 Jan 14:53:55 14:59:43 34° 67° (ENE) 15:04:15 437.405
JAS-2 28 Jan 14:57:29 15:00:31 16° 63° (ENE) 15:03:41 435.910
BEESAT 28 Jan 15:01:59 15:06:04 28° 292° (WNW) 15:10:04 436.000
ITUPSAT 1 28 Jan 15:05:18 15:09:20 27° 292° (WNW) 15:13:16 437.325
VERMONT LUNAR 28 Jan 15:13:52 15:15:20 12° 213° (SSW) 15:16:42 437.305
AUBIESAT-1 28 Jan 15:15:19 15:17:23 16° 99° (E) 15:19:36 437.475
STARS 28 Jan 15:33:02 15:37:31 86° 286° (WNW) 15:41:57 437.465
Gurwin Techsat 1B 28 Jan 15:35:47 15:39:16 17° 271° (W) 15:42:32 435.225
KKS-1 28 Jan 15:37:25 15:41:49 51° 287° (WNW) 15:46:08 437.445
DANDE 28 Jan 16:02:32 16:09:27 75° 263° (W) 16:14:30 436.750
RS-15 28 Jan 16:06:08 16:16:19 38° 252° (WSW) 16:26:36 29.354- 29.394
M-CUBED/EXP-1 PRIME 28 Jan 16:15:14 16:18:32 66° 290° (WNW) 16:21:54 437.505
AO-7 28 Jan 16:23:33 16:31:38 51° 260° (W) 16:39:42 29.400- 29.500
HORYU 2 28 Jan 16:28:19 16:30:04 12° 272° (W) 16:31:33 437.375
O/OREOS (USA 219) 28 Jan 16:35:29 16:39:55 67° 110° (ESE) 16:44:25 437.305
CUSAT 1 28 Jan 16:37:15 16:42:37 30° 274° (W) 16:46:46 437.405
JAS-2 28 Jan 16:39:43 16:45:16 66° 258° (WSW) 16:50:29 435.910
Cubesat XI-IV 28 Jan 16:39:48 16:43:31 20° 64° (ENE) 16:47:25 437.490
AUBIESAT-1 28 Jan 16:49:36 16:52:26 26° 294° (WNW) 16:55:17 437.475
CUTE-I 28 Jan 16:59:09 17:03:38 29° 67° (ENE) 17:08:13 437.470
MOZHAYETS 4 28 Jan 17:09:55 17:14:28 63° 100° (E) 17:18:59
PRISM 28 Jan 17:48:12 17:50:26 15° 91° (E) 17:52:51 437.425
SO-50 28 Jan 18:03:51 18:06:52 16° 37° (NE) 18:10:01 436.795
O/OREOS (USA 219) 28 Jan 18:17:24 18:19:54 14° 309° (NW) 18:22:15 437.305
Cubesat XI-IV 28 Jan 18:18:02 18:23:15 55° 260° (W) 18:28:31 437.490
CUTE-I 28 Jan 18:38:43 18:43:37 36° 263° (W) 18:48:31 437.470
STRAND 1 28 Jan 18:48:09 18:52:50 35° 97° (E) 18:57:34 437.568
MOZHAYETS 4 28 Jan 18:48:50 18:51:15 14° 296° (WNW) 18:53:29
YUBILEINY 28 Jan 18:58:51 19:06:07 33° 85° (E) 19:13:37 435.215
CUBESAT XI-V 28 Jan 19:00:02 19:04:44 68° 102° (ESE) 19:09:25 437.345
HO-68 28 Jan 19:09:22 19:15:14 30° 61° (ENE) 19:21:16 435.675
GOMX 1 28 Jan 19:20:50 19:24:20 20° 64° (ENE) 19:28:09 467.674
BRITE-PL 28 Jan 19:20:55 19:25:04 27° 66° (ENE) 19:29:35 437.365/2234.400
PRISM 28 Jan 19:22:17 19:26:16 45° 288° (WNW) 19:30:14 437.425
COMPASS 1 28 Jan 19:33:34 19:35:51 15° 66° (ENE) 19:38:18 437.405
DOVE 4 28 Jan 19:36:26 19:39:58 20° 64° (ENE) 19:43:46 437.250
SO-50 28 Jan 19:43:13 19:48:10 89° 42° (NE) 19:53:06 436.795
CANX-2 28 Jan 19:44:08 19:47:50 29° 70° (ENE) 19:51:35 2200.000
AAUSAT CUBESAT 2 28 Jan 19:59:13 20:02:34 24° 69° (ENE) 20:06:01 437.432
CUTE 1.7 + AOD 2 28 Jan 20:07:55 20:12:02 48° 73° (ENE) 20:16:12 437.475
Oscar 11 28 Jan 20:08:32 20:11:08 16° 66° (ENE) 20:13:54 145.826/435.025
STRAND 1 28 Jan 20:27:32 20:31:57 29° 293° (WNW) 20:36:16 437.568
CUBESAT XI-V 28 Jan 20:39:17 20:41:41 14° 296° (WNW) 20:43:53 437.345
SEEDS 28 Jan 20:39:23 20:43:39 87° 257° (WSW) 20:47:56 437.485
UKube-1 28 Jan 20:42:45 20:46:03 22° 67° (ENE) 20:49:29 .
CUBEBUG 2 28 Jan 20:44:48 20:48:52 29° 69° (ENE) 20:53:02 437.445
YUBILEINY 28 Jan 20:54:07 21:02:36 54° 284° (WNW) 21:11:05 435.215
ZACube-1 28 Jan 20:55:37 20:59:23 26° 69° (ENE) 21:03:16 437.345
HO-68 28 Jan 20:55:37 21:02:37 57° 259° (W) 21:09:39 435.675
GOMX 1 28 Jan 20:57:03 21:02:00 56° 261° (W) 21:07:17 467.674
BRITE-PL 28 Jan 20:58:41 21:03:23 39° 265° (W) 21:08:25 437.365/2234.400
DX 1 28 Jan 21:02:00 21:05:58 36° 71° (ENE) 21:10:01 434.975-435.025
CINEMA 3 28 Jan 21:04:04 21:08:58 76° 76° (ENE) 21:14:02 145.822/145.860
HUMSAT D 28 Jan 21:04:44 21:07:34 18° 66° (ENE) 21:10:33 437.325/437.525
COMPASS 1 28 Jan 21:07:06 21:11:13 50° 261° (W) 21:15:21 437.405
FUNcube-1 28 Jan 21:07:25 21:11:32 34° 71° (ENE) 21:15:43 145.935
DOVE 4 28 Jan 21:12:24 21:17:19 54° 261° (W) 21:22:28 437.250
CANX-2 28 Jan 21:20:15 21:23:48 24° 266° (W) 21:27:18 2200.000
ISS 28 Jan 21:23:45 21:25:51 16° 132° (SE) 21:28:03 145.825
AISAT 28 Jan 21:23:56 21:27:30 25° 68° (ENE) 21:31:09 437.250
UWE-3 28 Jan 21:25:35 21:30:13 64° 74° (ENE) 21:34:54 435.000/436.395/437.385
SO-50 28 Jan 21:26:36 21:28:08 11° 252° (WSW) 21:29:20 436.795
ESTCUBE 1 28 Jan 21:27:04 21:28:32 12° 63° (ENE) 21:30:13 437.505/2401.250
DELFI C3 28 Jan 21:32:40 21:36:45 76° 258° (WSW) 21:40:51 145.870
AAUSAT CUBESAT 2 28 Jan 21:34:28 21:38:10 28° 265° (W) 21:41:48 437.432
Oscar 11 28 Jan 21:42:46 21:46:59 48° 261° (W) 21:51:13 145.826/435.025
CUTE 1.7 + AOD 2 28 Jan 21:45:48 21:48:19 15° 270° (W) 21:50:38 437.475
VELOX 1 28 Jan 21:51:47 21:56:00 46° 72° (ENE) 22:00:17 145.980
CUBEBUG 1 28 Jan 22:02:51 22:06:19 24° 68° (ENE) 22:09:55 437.445
QB50P1 28 Jan 22:15:05 22:16:36 12° 88° (E) 22:18:21 145.935-145.965
UKube-1 28 Jan 22:18:08 22:22:05 33° 263° (W) 22:26:00 .
50 SAT 28 Jan 22:20:33 22:24:42 88° 79° (ENE) 22:28:52 437.505
CUBEBUG 2 28 Jan 22:21:20 22:25:32 30° 266° (W) 22:29:43 437.445
UNISAT 6 28 Jan 22:24:43 22:28:28 27° 94° (E) 22:32:11 437.425
POLYITAN 1 28 Jan 22:28:22 22:31:12 17° 91° (E) 22:34:10 437.675
BUGSAT 1 28 Jan 22:29:35 22:31:36 13° 89° (E) 22:33:50 437.445
ZACube-1 28 Jan 22:31:33 22:35:41 31° 265° (W) 22:39:47 437.345
TISAT 1 28 Jan 22:31:57 22:33:32 12° 64° (ENE) 22:35:19 437.305
HUMSAT D 28 Jan 22:38:55 22:43:05 43° 262° (W) 22:47:15 437.325/437.525
DX 1 28 Jan 22:39:08 22:42:24 20° 267° (W) 22:45:33 434.975-435.025
FUNcube-1 28 Jan 22:44:11 22:47:57 24° 267° (W) 22:51:39 145.935
CINEMA 3 28 Jan 22:44:47 22:46:53 12° 274° (W) 22:48:42 145.822/145.860
AIST 1 28 Jan 22:45:10 22:49:31 71° 81° (E) 22:53:53
POPSAT HIP 1 28 Jan 22:48:04 22:51:46 28° 95° (E) 22:55:31 437.405
DUCHIFAT 1 28 Jan 22:51:02 22:54:49 30° 96° (E) 22:58:36 145.980
ISS 28 Jan 22:58:51 23:02:05 57° 327° (NNW) 23:05:21 145.825
AISAT 28 Jan 23:00:02 23:04:01 31° 264° (W) 23:08:00 437.250
ANTELSAT 28 Jan 23:00:11 23:04:39 66° 101° (E) 23:08:58 437.575/2403.000
ESTCUBE 1 28 Jan 23:00:24 23:04:53 74° 258° (WSW) 23:09:23 437.505/2401.250
UWE-3 28 Jan 23:04:56 23:07:17 13° 272° (W) 23:09:23 435.000/436.395/437.385
TIGRISAT 28 Jan 23:08:16 23:12:45 79° 101° (E) 23:17:06 435.000
NANOSAT C BR1 28 Jan 23:25:07 23:29:27 74° 102° (ESE) 23:33:43 145.865
SPROUT 28 Jan 23:25:48 23:29:54 45° 73° (ENE) 23:34:05 437.525
VELOX 1 28 Jan 23:30:01 23:32:54 16° 269° (W) 23:35:38 145.980
CUBEBUG 1 28 Jan 23:38:46 23:42:37 30° 264° (W) 23:46:27 437.445
QB50P2 28 Jan 23:39:08 23:43:28 76° 284° (WNW) 23:47:44 145.880/145.840
QB50P1 28 Jan 23:48:43 23:53:00 60° 285° (WNW) 23:57:12 145.935-145.965
UNISAT 6 29 Jan 00:01:25 00:05:16 28° 291° (WNW) 00:08:57 437.425
BUGSAT 1 29 Jan 00:03:18 00:07:29 53° 287° (WNW) 00:11:40 437.445
POLYITAN 1 29 Jan 00:03:18 00:07:23 41° 288° (WNW) 00:11:25 437.675
TISAT 1 29 Jan 00:04:40 00:08:53 65° 259° (W) 00:13:08 437.305
SWISSCUBE 29 Jan 00:15:11 00:19:10 28° 68° (ENE) 00:23:14 437.505
POPSAT HIP 1 29 Jan 00:24:00 00:27:38 26° 291° (WNW) 00:31:08 437.405
DUCHIFAT 1 29 Jan 00:27:03 00:30:34 24° 292° (WNW) 00:33:59 145.980
BEESAT 29 Jan 00:30:42 00:35:01 36° 70° (ENE) 00:39:24 436.000
ITUPSAT 1 29 Jan 00:34:12 00:38:35 39° 70° (ENE) 00:43:01 437.325
ISS 29 Jan 00:36:53 00:39:09 17° 347° (NNW) 00:41:24 145.825
ANTELSAT 29 Jan 00:38:54 00:40:56 13° 297° (WNW) 00:42:45 437.575/2403.000
TIGRISAT 29 Jan 00:47:46 00:48:55 11° 298° (WNW) 00:49:49 435.000
GONETS M04 29 Jan 01:00:27 01:08:27 43° 88° (E) 01:16:35
KKS-1 29 Jan 01:01:10 01:03:39 15° 64° (ENE) 01:06:18 437.445
Oscar 19 29 Jan 01:01:13 01:05:03 22° 92° (E) 01:09:01 437.125/150
NANOSAT C BR1 29 Jan 01:03:31 01:04:47 11° 297° (WNW) 01:05:50 145.865
SPROUT 29 Jan 01:03:38 01:06:19 16° 270° (W) 01:08:51 437.525
O/OREOS (USA 219) 29 Jan 01:07:24 01:10:01 15° 52° (NE) 01:12:49 437.305
M-CUBED/EXP-1 PRIME 29 Jan 01:31:40 01:33:39 14° 63° (ENE) 01:35:42 437.505
BEESAT 2 29 Jan 01:48:12 01:50:56 18° 112° (ESE) 01:53:50 435.950
SWISSCUBE 29 Jan 01:52:45 01:57:00 31° 264° (W) 02:01:11 437.505
BEESAT 3 29 Jan 02:01:54 02:05:23 28° 115° (ESE) 02:09:00 437.485
AUBIESAT-1 29 Jan 02:03:45 02:07:07 27° 67° (ENE) 02:10:19 437.475
BEESAT 29 Jan 02:09:09 02:13:01 23° 267° (W) 02:16:46 436.000
Gurwin Techsat 1B 29 Jan 02:10:24 02:14:35 24° 93° (E) 02:18:54 435.225
ITUPSAT 1 29 Jan 02:12:55 02:16:39 22° 267° (W) 02:20:18 437.325
ISS 29 Jan 02:14:41 02:16:38 15° 7° (N) 02:18:36 145.825
STARS 29 Jan 02:29:55 02:34:23 84° 76° (ENE) 02:38:52 437.465
KKS-1 29 Jan 02:35:29 02:39:54 56° 260° (W) 02:44:20 437.445
Oscar 19 29 Jan 02:39:46 02:44:41 45° 289° (WNW) 02:49:32 437.125/150
HORYU 2 29 Jan 02:41:54 02:43:42 12° 89° (E) 02:45:44 437.375
O/OREOS (USA 219) 29 Jan 02:45:24 02:49:58 63° 251° (WSW) 02:54:30 437.305
ITAMSAT 1 29 Jan 02:54:37 02:59:52 88° 100° (E) 03:05:08 435.822/435.867
GONETS M04 29 Jan 02:57:10 03:05:23 42° 288° (WNW) 03:13:29
M-CUBED/EXP-1 PRIME 29 Jan 03:04:26 03:08:25 48° 255° (WSW) 03:12:05 437.505
AIST 2 29 Jan 03:18:25 03:22:37 69° 121° (ESE) 03:26:55 435.215
BEESAT 2 29 Jan 03:24:55 03:28:53 43° 308° (NW) 03:32:54 435.950
PCSat 29 Jan 03:26:54 03:29:59 16° 106° (ESE) 03:33:20 145.827
DANDE 29 Jan 03:29:23 03:35:55 28° 85° (E) 03:43:01 436.750
AUBIESAT-1 29 Jan 03:38:51 03:42:03 22° 259° (W) 03:45:00 437.475
BEESAT 3 29 Jan 03:39:53 03:43:30 29° 312° (NW) 03:47:09 437.485
JAS-2 29 Jan 03:48:59 03:51:53 14° 89° (E) 03:55:19 435.910
Gurwin Techsat 1B 29 Jan 03:49:45 03:54:47 43° 290° (WNW) 03:59:46 435.225
ISS 29 Jan 03:50:49 03:53:53 34° 27° (NNE) 03:56:58 145.825
CUSAT 1 29 Jan 03:58:52 04:06:37 51° 92° (E) 04:14:42 437.405
MOZHAYETS 4 29 Jan 04:11:50 04:16:21 59° 74° (ENE) 04:20:52
HORYU 2 29 Jan 04:16:29 04:20:52 60° 286° (WNW) 04:25:14 437.375
RS-15 29 Jan 04:17:45 04:27:22 39° 109° (ESE) 04:37:13 29.354- 29.394
AO-7 29 Jan 04:24:41 04:32:52 58° 102° (ESE) 04:41:01 29.400- 29.500
ITAMSAT 1 29 Jan 04:36:22 04:38:44 13° 300° (WNW) 04:40:51 435.822/435.867
PRISM 29 Jan 04:40:12 04:41:39 12° 64° (ENE) 04:43:18 437.425
AIST 2 29 Jan 04:58:59 05:01:45 16° 319° (NW) 05:04:26 435.215
PCSat 29 Jan 05:07:30 05:12:53 70° 301° (WNW) 05:18:20 145.827
YUBILEINY 29 Jan 05:09:14 05:13:54 16° 57° (ENE) 05:19:06 435.215
DANDE 29 Jan 05:10:36 05:18:47 70° 283° (WNW) 05:27:28 436.750
CUTE-I 29 Jan 05:18:48 05:19:37 10° 86° (E) 05:20:50 437.470
ISS 29 Jan 05:27:24 05:30:22 31° 224° (SW) 05:33:19 145.825
JAS-2 29 Jan 05:31:55 05:37:35 79° 285° (WNW) 05:43:57 435.910
CUSAT 1 29 Jan 05:42:12 05:49:54 40° 290° (WNW) 05:57:36 437.405
MOZHAYETS 4 29 Jan 05:51:40 05:54:03 13° 271° (W) 05:56:13
CUBESAT XI-V 29 Jan 06:03:29 06:08:01 66° 75° (ENE) 06:12:37 437.345
STRAND 1 29 Jan 06:04:02 06:08:55 51° 72° (ENE) 06:13:53 437.568
PRISM 29 Jan 06:12:40 06:16:45 61° 259° (W) 06:20:50 437.425
AO-7 29 Jan 06:18:02 06:25:21 34° 301° (WNW) 06:32:28 29.400- 29.500
RS-15 29 Jan 06:28:32 06:39:19 61° 311° (NW) 06:50:13 29.354- 29.394
Cubesat XI-IV 29 Jan 06:35:09 06:40:28 60° 100° (E) 06:45:48 437.490
PCSat 29 Jan 06:54:39 06:57:26 14° 323° (NW) 07:00:00 145.827
CUTE-I 29 Jan 06:55:11 07:00:35 88° 97° (E) 07:05:59 437.470
DANDE 29 Jan 06:58:41 07:04:02 17° 304° (NW) 07:08:58 436.750
YUBILEINY 29 Jan 07:03:47 07:12:35 77° 81° (E) 07:21:25 435.215
JAS-2 29 Jan 07:20:03 07:22:08 12° 300° (WNW) 07:23:55 435.910
CUBESAT XI-V 29 Jan 07:44:07 07:46:03 12° 273° (W) 07:47:43 437.345
STRAND 1 29 Jan 07:44:51 07:48:30 19° 269° (W) 07:51:59 437.568
VERMONT LUNAR 29 Jan 07:59:56 08:01:42 14° 148° (SSE) 08:03:34 437.305
Cubesat XI-IV 29 Jan 08:16:22 08:20:10 19° 297° (WNW) 08:23:48 437.490
HO-68 29 Jan 08:23:37 08:29:33 29° 93° (E) 08:35:39 435.675
SEEDS 29 Jan 08:25:25 08:27:51 15° 90° (E) 08:30:25 437.485
